Weather History for Port Angeles, WA

Change the Weather History Date:

Saturday, October 19, 2013

  Actual Average Record
Temperature  
Mean Temperature 42 °F -  
Max Temperature 50 °F 55 °F 69 °F (2014)
Min Temperature 36 °F 42 °F 31 °F (1987)
Degree Days  
Heating Degree Days 23    
Moisture  
Dew Point 42 °F    
Average Humidity 96    
Maximum Humidity 100    
Minimum Humidity 90    
Precipitation  
Precipitation 0.00 in - - ()
Sea Level Pressure  
Sea Level Pressure 30.18 in    
Wind  
Wind Speed 2 mph (ESE)    
Max Wind Speed 8 mph    
Max Gust Speed -    
Visibility 2 miles    
Events Fog    
Averages and records for this station are not official NWS values.
T = Trace of Precipitation, MM = Missing Value Source: NWS Daily Summary

Daily Weather History Graph

Daily Weather History Graph

Search for Another Location

Airport:

Trip Planner

Search our weather history database for the weather conditions in past years. The results will help you decide how hot, cold, wet, or windy it might be!

Date:

Astronomy

Oct. 19, 2013 Rise Set
Actual Time 7:39 AM PDT 6:17 PM PDT
Civil Twilight 7:08 AM PDT 6:48 PM PDT
Nautical Twilight 6:32 AM PDT 7:24 PM PDT
Astronomical Twilight 5:56 AM PDT 8:00 PM PDT
Moon 6:42 PM PDT (10/19) 8:28 AM PDT (10/19)
Length of Visible Light 11h 40m
Length of Day
10h 37m
Full, 99% of the Moon is Illuminated
Oct 19
Full
Oct 26
Last Quarter
Nov 3
New
Nov 9
First Quarter
Nov 17
Full

Hourly Weather History & Observations

Time (PDT) Temp. Windchill Dew Point Humidity Pressure Visibility Wind Dir Wind Speed Gust Speed Precip Events Conditions
12:16 AM 39.0 °F - 37.9 °F 96% 30.16 in 1.0 mi Calm Calm - N/A   Mist
12:21 AM 39.0 °F - 37.9 °F 96% 30.16 in 3.0 mi Calm Calm - N/A   Mostly Cloudy
12:28 AM 37.9 °F - 37.9 °F 100% 30.17 in 2.0 mi Calm Calm - N/A   Scattered Clouds
12:35 AM 37.9 °F - 37.0 °F 97% 30.17 in 1.2 mi Calm Calm - N/A   Scattered Clouds
12:45 AM 37.9 °F - 36.0 °F 93% 30.17 in 1.0 mi Calm Calm - N/A   Mist
12:53 AM 37.9 °F - 37.0 °F 97% 30.17 in 1.5 mi Calm Calm - N/A   Partly Cloudy
1:01 AM 37.9 °F - 37.0 °F 97% 30.17 in 3.0 mi Calm Calm - N/A   Partly Cloudy
1:08 AM 39.0 °F - 37.9 °F 96% 30.17 in 1.8 mi Calm Calm - N/A   Scattered Clouds
1:10 AM 39.0 °F - 37.9 °F 96% 30.17 in 1.0 mi Calm Calm - N/A   Mist
1:14 AM 39.9 °F 37.8 °F 39.0 °F 97% 30.17 in 0.2 mi East 3.5 mph - N/A Fog Fog
1:53 AM 39.0 °F - 39.0 °F 100% 30.18 in 0.2 mi Calm Calm - N/A Fog Fog
2:15 AM 37.9 °F - 37.0 °F 97% 30.17 in 0.5 mi Calm Calm - N/A Fog Fog
2:29 AM 37.0 °F - 37.0 °F 100% 30.17 in 0.2 mi Calm Calm - N/A Fog Fog
2:44 AM 37.9 °F - 37.0 °F 97% 30.16 in 0.5 mi Calm Calm - N/A Fog Fog
2:53 AM 37.9 °F - 36.0 °F 93% 30.17 in 0.5 mi Calm Calm - N/A Fog Fog
3:00 AM 37.0 °F - 35.1 °F 93% 30.16 in 0.5 mi Calm Calm - N/A Fog Fog
3:10 AM 37.0 °F 33.3 °F 36.0 °F 96% 30.16 in 0.8 mi SE 4.6 mph - N/A   Mist
3:15 AM 37.0 °F 33.3 °F 37.0 °F 100% 30.16 in 2.0 mi SSE 4.6 mph - N/A   Mostly Cloudy
3:23 AM 37.0 °F 34.5 °F 37.0 °F 100% 30.16 in 9.0 mi SSE 3.5 mph - N/A   Scattered Clouds
3:53 AM 36.0 °F - 35.1 °F 97% 30.17 in 9.0 mi Calm Calm - N/A   Clear
4:22 AM 36.0 °F - 35.1 °F 97% 30.17 in 10.0 mi Calm Calm - N/A   Scattered Clouds
4:29 AM 36.0 °F - 35.1 °F 97% 30.17 in 1.8 mi Calm Calm - N/A   Mostly Cloudy
4:34 AM 37.0 °F 33.3 °F 36.0 °F 96% 30.17 in 0.2 mi SSE 4.6 mph - N/A Fog Fog
4:53 AM 37.9 °F 35.5 °F 37.0 °F 97% 30.17 in 0.2 mi ESE 3.5 mph - N/A Fog Fog
5:53 AM 37.9 °F - 37.0 °F 97% 30.17 in 0.2 mi Calm Calm - N/A Fog Fog
6:04 AM 37.9 °F 35.5 °F 37.0 °F 97% 30.16 in 0.5 mi SSE 3.5 mph - N/A Fog Fog
6:33 AM 37.9 °F 34.4 °F 37.0 °F 97% 30.16 in 0.2 mi ESE 4.6 mph - N/A Fog Fog
6:43 AM 37.9 °F - 37.0 °F 97% 30.17 in 0.8 mi Calm Calm - N/A   Overcast
6:53 AM 37.9 °F 35.5 °F 37.0 °F 97% 30.17 in 0.8 mi SSE 3.5 mph - N/A   Mist
7:06 AM 37.9 °F - 37.9 °F 100% 30.16 in 0.2 mi Calm Calm - N/A Fog Fog
7:53 AM 41.0 °F 37.1 °F 39.9 °F 96% 30.18 in 0.2 mi SE 5.8 mph - N/A Fog Fog
8:05 AM 42.1 °F 39.2 °F 41.0 °F 96% 30.17 in 0.2 mi SSE 4.6 mph - N/A Fog Fog
8:31 AM 43.0 °F 40.3 °F 42.1 °F 97% 30.18 in 0.2 mi SSE 4.6 mph - N/A Fog Fog
8:53 AM 44.1 °F 42.5 °F 44.1 °F 100% 30.19 in 0.2 mi SSE 3.5 mph - N/A Fog Fog
9:19 AM 46.0 °F 43.1 °F 45.0 °F 96% 30.20 in 0.2 mi SSE 5.8 mph - N/A Fog Fog
9:53 AM 46.9 °F - 45.0 °F 93% 30.21 in 0.2 mi ESE 5.8 mph - N/A Fog Fog
10:53 AM 46.9 °F - 46.0 °F 97% 30.20 in 0.2 mi Variable 4.6 mph - N/A Fog Fog
11:50 AM 46.4 °F 44.3 °F 46.4 °F 100% 30.18 in 0.5 mi ESE 4.6 mph - N/A Fog Fog
11:53 AM 48.0 °F - 46.0 °F 93% 30.19 in 0.5 mi East 5.8 mph - N/A Fog Fog
12:14 PM 46.9 °F - 46.0 °F 97% 30.19 in 0.2 mi East 6.9 mph - N/A Fog Fog
12:48 PM 48.2 °F - 46.4 °F 93% 30.19 in 1.0 mi ESE 5.8 mph - N/A   Overcast
12:53 PM 48.0 °F - 46.9 °F 96% 30.20 in 1.2 mi East 6.9 mph - N/A   Overcast
1:12 PM 48.0 °F - 46.9 °F 96% 30.19 in 2.0 mi ESE 8.1 mph - N/A   Overcast
1:22 PM 48.0 °F - 46.0 °F 93% 30.19 in 3.0 mi East 5.8 mph - N/A   Overcast
1:53 PM 48.0 °F - 46.9 °F 96% 30.19 in 4.0 mi Variable 4.6 mph - N/A   Overcast
2:53 PM 48.9 °F - 46.9 °F 93% 30.18 in 8.0 mi ESE 5.8 mph - N/A   Overcast
3:53 PM 48.9 °F - 46.0 °F 90% 30.18 in 8.0 mi ENE 4.6 mph - N/A   Overcast
4:53 PM 48.9 °F - 46.9 °F 93% 30.17 in 6.0 mi ESE 3.5 mph - N/A   Overcast
5:44 PM 48.0 °F - 46.0 °F 93% 30.16 in 2.5 mi Calm Calm - N/A   Overcast
5:53 PM 48.0 °F - 46.0 °F 93% 30.17 in 2.0 mi ESE 4.6 mph - N/A   Overcast
6:00 PM 48.0 °F - 46.0 °F 93% 30.16 in 1.5 mi East 4.6 mph - N/A   Overcast
6:37 PM 48.0 °F - 46.0 °F 93% 30.17 in 2.5 mi East 5.8 mph - N/A   Overcast
6:53 PM 46.9 °F - 46.0 °F 97% 30.18 in 1.5 mi ESE 6.9 mph - N/A   Overcast
7:08 PM 48.0 °F - 46.0 °F 93% 30.17 in 2.5 mi ESE 5.8 mph - N/A   Overcast
7:29 PM 48.0 °F - 46.0 °F 93% 30.18 in 1.5 mi East 3.5 mph - N/A   Overcast
7:43 PM 46.9 °F - 46.0 °F 97% 30.18 in 0.8 mi East 3.5 mph - N/A   Overcast
7:50 PM 46.4 °F 44.3 °F 46.4 °F 100% 30.18 in 1.0 mi East 4.6 mph - N/A   Overcast
7:53 PM 46.9 °F - 46.0 °F 97% 30.19 in 1.0 mi East 5.8 mph - N/A   Overcast
8:02 PM 46.9 °F - 46.0 °F 97% 30.18 in 1.0 mi SE 5.8 mph - N/A   Mist
8:33 PM 46.9 °F - 46.0 °F 97% 30.18 in 2.0 mi East 3.5 mph - N/A   Overcast
8:42 PM 46.9 °F - 46.0 °F 97% 30.18 in 1.5 mi East 4.6 mph - N/A   Overcast
8:53 PM 46.9 °F - 46.0 °F 97% 30.19 in 1.0 mi ESE 4.6 mph - N/A   Overcast
8:56 PM 46.9 °F - 46.0 °F 97% 30.18 in 0.8 mi ESE 4.6 mph - N/A   Mist
9:53 PM 46.9 °F - 45.0 °F 93% 30.20 in 0.2 mi East 6.9 mph - N/A Fog Fog
10:03 PM 46.9 °F - 45.0 °F 93% 30.19 in 0.2 mi East 5.8 mph - N/A Fog Fog
10:44 PM 46.0 °F 42.5 °F 45.0 °F 96% 30.21 in 0.5 mi ESE 6.9 mph - N/A Fog Fog
10:53 PM 46.0 °F 43.9 °F 45.0 °F 96% 30.21 in 0.5 mi East 4.6 mph - N/A Fog Fog
11:53 PM 46.0 °F 44.8 °F 45.0 °F 96% 30.21 in 0.5 mi ESE 3.5 mph - N/A Fog Fog